YAOGAN 1

导读

YAOGAN 1(遥感一号)是中国于2006年4月26日8时发射的首颗遥感卫星,主要用于国土资源勘查、环境监测与保护、城市规划、农作物估产、防灾减灾和空间科学试验等领域。它的成功发射标志着中国遥感卫星技术进入新发展阶段,为国民经济建设提供了有力的空间信息支撑,推动了中国航天遥感产业的应用发展。

Basic Information
目录编号:
29092
目录名称:
YAOGAN 1
国际标识:
2006-015A
轨道中心:
EARTH
卫星名称:
YAOGAN 1
卫星全名:
--
卫星状态:
在轨 (已飞行7397 天)
发射日期:
2006-04-26 UTC
国别 :
中国 (CN)
星等 :
--
Orbit Information
数据来源 国际轨道数据 AOE轨道数据
星历时间 2026-07-27T09:09:13+0800
21小时前
查看轨道信息
2026-07-27T03:00:00+0800
1天前
查看轨道信息
半长轴 6982.956km 6982.958km
偏心率 0.000168 0.0001287
轨道倾角 97.746° 97.745°
近地点辐角 91.111° 77.305°
升交点赤经 228.069° 227.822°
平近点角 269.030° 350.414°
近地点 603.645km 603.922km
远地点 605.993km 605.72km
周期 96.787分钟 96.787分钟
每日圈数 14.877975 14.87797
Detailed Information
使用方式:
暂无
2D Orbit Map
3D Orbit Map
Orbit Altitude Analysis Chart
Orbit Inclination Analysis Chart
Orbit Comprehensive Analysis Chart
View Comprehensive Chart